Location: Frydek-Mistek
(49.6830°N, 18.3330°E)
Time: 09:28:49
(UTC+01:00)

Courier 1B Rocket - Visible Passes

Search period start: 07 February 2016 00:00
Search period end: 17 February 2016 00:00
Orbit: 921 x 1202 km, 28.2° (Epoch: 06 February)

Date Brightness Start Highest point End Pass type
(mag) Time Alt. Az. Time Alt. Az. Time Alt. Az.
07 Feb 7.3 04:12:47 13° S 04:13:31 14° S 04:17:01 10° SSE visible
07 Feb 7.4 06:03:55 10° SSW 06:05:36 11° SSW 06:07:16 10° S visible
08 Feb 7.6 03:15:31 11° SSE 03:15:31 11° SSE 03:16:07 10° SSE visible
08 Feb 7.3 05:01:54 10° SSW 05:04:57 13° S 05:07:58 10° SSE visible
09 Feb 7.3 04:04:37 14° S 04:04:37 14° S 04:07:48 10° SSE visible
10 Feb 7.3 04:53:43 10° SSW 04:55:39 11° SSW 04:57:44 10° S visible
11 Feb 7.4 03:56:28 12° S 03:56:28 12° S 03:58:09 10° SSE visible
